Location: Grand Rapids
(42.9630°N, 85.6680°W)
Time: 01:21:28
(UTC-04:00)

S-56A Canister/Altair - Pass Details

Date: 08 June 2024
Orbit: 637 x 2489 km, 38.9° (Epoch: 21 June)

Event Time Altitude Azimuth Distance (km) Brightness Sun altitude
Rises 09:47:33 0° 285° (WNW) 6,015 11.6 38.1°
Reaches altitude 10° 09:52:55 10° 273° (W) 4,800 11.2 39.1°
Maximum altitude 10:01:45 22° 230° (SW) 3,423 10.7 40.7°
Drops below altitude 10° 10:08:53 10° 185° (S) 3,756 11.2 42.0°
Sets 10:12:28 0° 170° (S) 4,432 11.6 42.6°
